FW5335 Weather Reports


Display with metric or nautical units.
time (UTC)temp
F
wind
direction
speed
MPH
gust
MPH
rain 1hr
in
rain 24hr
in
rain mn
in
humidity
%
barometer
mb
20260509202519 61 0 6.0 13.0 0.00 0.00 0.00 58 1017.1
20260509201539 62 0 7.0 12.0 0.00 0.00 0.00 58 1017.2
20260509200519 62 0 5.0 11.0 0.00 0.00 0.00 58 1017.0
20260509195519 62 0 4.0 9.0 0.00 0.00 0.00 58 1016.7
20260509194519 63 0 3.0 5.0 0.00 0.00 0.00 57 1016.7
20260509193518 63 0 5.0 9.0 0.00 0.00 0.00 56 1016.7
20260509192519 64 0 6.0 10.0 0.00 0.00 0.00 56 1016.7
20260509191519 64 0 5.0 9.0 0.00 0.00 0.00 56 1016.7
20260509190519 65 0 5.0 9.0 0.00 0.00 0.00 55 1016.7
20260509185548 65 0 7.0 12.0 0.00 0.00 0.00 54 1016.6
20260509184518 66 0 6.0 11.0 0.00 0.00 0.00 53 1016.7
20260509183519 66 45 4.0 9.0 0.00 0.00 0.00 50 1016.7
20260509182519 67 45 6.0 10.0 0.00 0.00 0.00 50 1016.6
20260509181518 67 23 5.0 13.0 0.00 0.00 0.00 49 1016.3
20260509180519 68 23 6.0 11.0 0.00 0.00 0.00 47 1016.5
20260509175518 68 0 5.0 12.0 0.00 0.00 0.00 48 1016.4
20260509174519 68 23 5.0 10.0 0.00 0.00 0.00 49 1016.1
20260509173521 68 68 7.0 13.0 0.00 0.00 0.00 48 1016.2
20260509172518 69 23 6.0 13.0 0.00 0.00 0.00 47 1016.1
20260509171519 69 45 5.0 12.0 0.00 0.00 0.00 47 1016.2
20260509170519 69 0 8.0 16.0 0.00 0.00 0.00 47 1016.6
20260509165519 69 0 7.0 11.0 0.00 0.00 0.00 47 1016.5
20260509165132 69 45 6.0 12.0 0.00 0.00 0.00 47 1016.4
20260509164519 70 23 6.0 15.0 0.00 0.00 0.00 48 1016.4
20260509163518 70 45 5.0 10.0 0.00 0.00 0.00 48 1016.5
20260509162516 69 0 5.0 14.0 0.00 0.00 0.00 47 1016.5
20260509161518 69 45 5.0 11.0 0.00 0.00 0.00 48 1016.6
20260509160518 69 0 6.0 11.0 0.00 0.00 0.00 48 1016.6
20260509155518 68 23 4.0 9.0 0.00 0.00 0.00 50 1016.7
20260509154518 69 45 7.0 14.0 0.00 0.00 0.00 47 1016.8
20260509153519 68 23 5.0 11.0 0.00 0.00 0.00 51 1017.0
20260509152517 68 68 4.0 10.0 0.00 0.00 0.00 51 1017.0
20260509151518 68 68 5.0 11.0 0.00 0.00 0.00 52 1016.9
20260509150544 69 68 4.0 9.0 0.00 0.00 0.00 50 1017.0
20260509145520 69 68 6.0 12.0 0.00 0.00 0.00 50 1017.4
20260509144523 71 338 5.0 12.0 0.00 0.00 0.00 45 1017.3
20260509143538 73 68 7.0 11.0 0.00 0.00 0.00 44 1017.5
20260509142523 74 45 7.0 14.0 0.00 0.00 0.00 45 1017.5
20260509141518 73 0 6.0 12.0 0.00 0.00 0.00 47 1017.5
20260509140518 71 45 6.0 10.0 0.00 0.00 0.00 47 1017.6
20260509135548 69 68 6.0 11.0 0.00 0.00 0.00 50 1017.6
20260509134518 69 45 7.0 14.0 0.00 0.00 0.00 47 1017.5
20260509133523 71 68 8.0 13.0 0.00 0.00 0.00 46 1017.6
20260509132519 73 68 6.0 13.0 0.00 0.00 0.00 49 1017.7
20260509131518 72 45 4.0 10.0 0.00 0.00 0.00 49 1017.5
20260509130519 70 23 6.0 11.0 0.00 0.00 0.00 51 1017.6
20260509125519 69 68 6.0 12.0 0.00 0.00 0.00 51 1017.7
20260509124518 68 68 5.0 11.0 0.00 0.00 0.00 56 1017.8
20260509123518 69 0 5.0 10.0 0.00 0.00 0.00 53 1017.8
20260509122519 70 68 7.0 14.0 0.00 0.00 0.00 53 1017.8
20260509121518 70 68 4.0 8.0 0.00 0.00 0.00 55 1017.9
20260509120518 68 45 5.0 8.0 0.00 0.00 0.00 55 1018.0
20260509115518 68 90 6.0 10.0 0.00 0.00 0.00 55 1018.1
20260509114518 68 68 6.0 12.0 0.00 0.00 0.00 56 1018.3
20260509113518 68 45 6.0 11.0 0.00 0.00 0.00 56 1018.3
20260509112518 68 68 5.0 9.0 0.00 0.00 0.00 56 1018.4
20260509111523 69 68 4.0 9.0 0.00 0.00 0.00 55 1018.5
20260509110544 69 68 5.0 10.0 0.00 0.00 0.00 57 1018.5
20260509105519 69 45 5.0 12.0 0.00 0.00 0.00 56 1018.7
20260509104520 68 45 4.0 10.0 0.00 0.00 0.00 60 1018.7
20260509103520 67 68 5.0 9.0 0.00 0.00 0.00 62 1018.8
20260509102600 65 68 3.0 6.0 0.00 0.00 0.00 62 1019.0
20260509101519 65 68 4.0 7.0 0.00 0.00 0.00 62 1019.0
20260509100546 65 45 5.0 8.0 0.00 0.00 0.00 64 1018.9
20260509095541 65 135 4.0 7.0 0.00 0.00 0.00 61 1018.9
20260509094543 65 45 3.0 8.0 0.00 0.00 0.00 62 1019.1
20260509093543 64 113 3.0 8.0 0.00 0.00 0.00 63 1019.1
20260509092542 63 68 3.0 6.0 0.00 0.00 0.00 65 1018.8
20260509091519 62 68 3.0 6.0 0.00 0.00 0.00 67 1018.9
20260509090523 61 68 2.0 5.0 0.00 0.00 0.00 66 1018.9
20260509085520 60 68 3.0 7.0 0.00 0.00 0.00 68 1018.9
20260509084519 59 68 4.0 6.0 0.00 0.00 0.00 69 1019.0
20260509083625 59 68 2.0 6.0 0.00 0.00 0.00 69 1018.8
20260509082525 58 113 2.0 4.0 0.00 0.00 0.00 69 1018.9
20260509081520 58 90 3.0 6.0 0.00 0.00 0.00 69 1018.9
20260509080519 57 68 3.0 4.0 0.00 0.00 0.00 70 1018.9
20260509075522 57 68 3.0 5.0 0.00 0.00 0.00 72 1018.8
20260509074519 56 90 2.0 4.0 0.00 0.00 0.00 73 1018.7
20260509073519 55 90 1.0 3.0 0.00 0.00 0.00 74 1018.6
20260509072519 55 68 2.0 5.0 0.00 0.00 0.00 75 1018.8
20260509071519 54 68 2.0 4.0 0.00 0.00 0.00 76 1018.7
20260509070521 54 113 2.0 4.0 0.00 0.00 0.00 78 1018.8
20260509065519 53 68 1.0 2.0 0.00 0.00 0.00 80 1018.7
20260509064520 52 0.0 0.0 0.00 0.00 0.00 83 1018.7
20260509063518 50 0.0 0.0 0.00 0.00 0.00 85 1018.4
20260509062519 49 0.0 0.0 0.00 0.00 0.00 86 1018.5
20260509061520 48 0.0 0.0 0.00 0.00 0.00 90 1018.3
20260509060519 47 0.0 0.0 0.00 0.00 0.00 91 1018.3
20260509055519 46 0.0 0.0 0.00 0.00 0.00 92 1018.2
20260509054519 45 0.0 0.0 0.00 0.00 0.00 91 1018.1
20260509053525 44 0.0 0.0 0.00 0.00 0.00 91 1018.4
20260509052519 43 0.0 0.0 0.00 0.00 0.00 91 1018.3
20260509051519 43 0.0 0.0 0.00 0.00 0.00 90 1018.2
20260509050554 43 0.0 0.0 0.00 0.00 0.00 90 1018.0
20260509045520 43 0.0 0.0 0.00 0.00 0.00 89 1017.9
20260509044519 43 0.0 0.0 0.00 0.00 0.00 90 1017.8
20260509043530 43 0.0 0.0 0.00 0.00 0.00 90 1017.9
20260509042519 43 0.0 0.0 0.00 0.00 0.00 90 1017.9
20260509041519 43 0.0 0.0 0.00 0.00 0.00 90 1017.9
20260509040524 43 0.0 0.0 0.00 0.00 0.00 89 1018.1
20260509035520 43 0.0 0.0 0.00 0.00 0.00 89 1018.0
20260509034541 43 0.0 0.0 0.00 0.00 0.00 90 1018.0
20260509033519 43 0.0 0.0 0.00 0.00 0.00 90 1018.1
20260509032520 43 0.0 0.0 0.00 0.00 0.00 89 1018.0
20260509031519 43 0.0 0.0 0.00 0.00 0.00 89 1018.3
20260509030519 43 0.0 0.0 0.00 0.00 0.00 89 1018.3
20260509025518 43 0.0 0.0 0.00 0.00 0.00 89 1018.3
20260509024519 43 0.0 1.0 0.00 0.00 0.00 88 1018.2
20260509023517 44 0.0 2.0 0.00 0.00 0.00 89 1018.2
20260509022517 44 0.0 0.0 0.00 0.00 0.00 88 1018.2
20260509021519 44 0.0 1.0 0.00 0.00 0.00 89 1018.1
20260509020520 44 0.0 1.0 0.00 0.00 0.00 88 1017.6
20260509015539 44 0.0 0.0 0.00 0.00 0.00 88 1017.7
20260509014525 44 0.0 1.0 0.00 0.00 0.00 88 1017.8
20260509013518 45 0.0 1.0 0.00 0.00 0.00 87 1018.0
20260509012519 45 180 2.0 3.0 0.00 0.00 0.00 87 1018.0
20260509011540 45 0.0 0.0 0.00 0.00 0.00 88 1017.9
20260509010519 45 0.0 0.0 0.00 0.00 0.00 88 1017.9
20260509005519 45 0.0 0.0 0.00 0.00 0.00 87 1018.1
20260509004544 45 0.0 0.0 0.00 0.00 0.00 87 1018.0
20260509003525 46 0.0 1.0 0.00 0.00 0.00 87 1018.0
20260509002519 46 0.0 2.0 0.00 0.00 0.00 86 1017.8
20260509001519 46 180 1.0 2.0 0.00 0.00 0.00 85 1018.1
20260509000518 47 180 1.0 3.0 0.00 0.00 0.00 86 1018.1
20260508235539 47 0.0 1.0 0.00 0.00 0.00 86 1018.2
20260508234519 47 0.0 0.0 0.00 0.00 0.00 85 1018.2
20260508233519 47 0.0 0.0 0.00 0.00 0.00 85 1018.2
20260508232519 48 0.0 2.0 0.00 0.00 0.00 85 1018.2
20260508231519 48 0.0 0.0 0.00 0.00 0.00 85 1018.1
20260508230520 48 0.0 0.0 0.00 0.00 0.00 85 1018.0
20260508225519 48 180 1.0 2.0 0.00 0.00 0.00 84 1017.9
20260508224519 48 180 1.0 2.0 0.00 0.00 0.00 84 1018.1
20260508223519 49 180 1.0 2.0 0.00 0.00 0.00 83 1017.9
20260508222519 49 0.0 0.0 0.00 0.00 0.00 83 1018.0
20260508221519 50 0.0 2.0 0.00 0.00 0.00 82 1018.1
20260508220519 50 203 1.0 3.0 0.00 0.00 0.00 82 1018.2
20260508215539 51 0.0 1.0 0.00 0.00 0.00 81 1018.3
20260508214519 51 0.0 0.0 0.00 0.00 0.00 81 1018.2
20260508213530 51 0.0 0.0 0.00 0.00 0.00 80 1018.0
20260508212518 52 203 1.0 3.0 0.00 0.00 0.00 79 1018.1
20260508211518 52 203 1.0 2.0 0.00 0.00 0.00 79 1018.2
20260508210646 52 0.0 1.0 0.00 0.00 0.00 77 1018.2
20260508205519 53 0.0 1.0 0.00 0.00 0.00 76 1018.0
20260508204524 53 203 1.0 2.0 0.00 0.00 0.00 76 1018.0
20260508203522 54 203 1.0 2.0 0.00 0.00 0.00 75 1017.9